Torna al catalogo

SL-8 R/B

AttivoPO
NORAD 20104·ROCKET BODY·🇷🇺 Russia

Lanciato Jul 4, 1989 da Plesetsk Cosmodrome

Loading…

Prossimi Passaggi (prossime 24 ore)

TLE

AggiornatoSource: Space-Track

Epoca: Sep 14, 2026, 05:38 UTC

1 20104U 89050B   26257.23533315  .00000092  00000-0  76344-4 0  9995
2 20104  82.9598 185.5640 0044976  86.2923 274.3376 13.77637250869140

Traccia SL-8 R/B in tempo reale con AllMySat

Download on the App Store